OPTUS D1

Last updated on Sun Jul 06 2025 00:02:43 GMT+0000 (Coordinated Universal Time)

1 29495U 06043B 25186.55068200 -.00000169 00000+0 00000+0 0 9995 2 29495 2.1392 84.0731 0003961 18.7701 171.2178 1.00272222 68643
UTC large
Height (km)
Speed (km/s)
/
Latitude / Longitude
Inclination (degrees)
Orbital Period (minutes)
Azimuth
Elevation
Range (km)
Doppler Factor

Next 0 passes for location: London (51.5072 / 0.1276)

Sorry there are no passes over London.